Retour au catalogue

COSMOS 2251 DEB

ActifLEO
NORAD 39583·DEBRIS·🇷🇺 Russia

Lancé Jun 16, 1993 depuis Plesetsk Cosmodrome

Loading…

Prochains Passages (prochaines 24 heures)

TLE

VieillissantSource: Space-Track

Époque: Sep 9, 2026, 06:20 UTC

1 39583U 93036BUN 26252.26422235  .00004709  00000-0  78929-3 0  9990
2 39583  73.9293  85.0948 0130629 138.7493 222.3636 14.64499162657359

Suivez COSMOS 2251 DEB en temps réel avec AllMySat

Download on the App Store